Time,TemperatureF,DewpointF,PressureIn,WindDirection,WindDirectionDegrees,WindSpeedMPH,WindSpeedGustMPH,Humidity,HourlyPrecipIn,Conditions,Clouds,dailyrainin,SoftwareType,DateUTC
2013-04-30 00:04:00,51.3,49.9,30.16,SSE,167,0.0,0.0,95,0.00,,OVC095,-99.99,VWS V12.07,2013-04-30 04:04:00,
2013-04-30 00:12:00,51.4,50.0,30.16,SSE,167,0.0,0.0,95,0.00,,OVC095,-99.99,VWS V12.07,2013-04-30 04:12:00,
2013-04-30 00:23:00,50.5,49.1,30.16,SSE,167,0.0,0.0,95,0.00,,OVC095,-99.99,VWS V12.07,2013-04-30 04:23:00,
2013-04-30 00:34:00,50.4,49.0,30.16,SSE,167,0.0,0.0,95,0.00,,OVC095,-99.99,VWS V12.07,2013-04-30 04:34:00,
2013-04-30 00:43:00,50.2,48.8,30.16,SSE,167,0.0,0.0,95,0.00,,OVC095,-99.99,VWS V12.07,2013-04-30 04:43:00,
2013-04-30 00:52:00,50.1,48.7,30.16,SSE,167,0.0,0.0,95,0.00,,OVC095,-99.99,VWS V12.07,2013-04-30 04:52:00,
2013-04-30 01:04:00,50.1,48.4,30.16,SSE,167,0.0,0.0,94,0.00,,OVC095,-99.99,VWS V12.07,2013-04-30 05:04:00,
2013-04-30 01:13:00,49.6,48.0,30.16,SSE,167,0.0,0.0,94,0.00,,OVC095,-99.99,VWS V12.07,2013-04-30 05:13:00,
2013-04-30 01:23:00,49.5,47.8,30.15,SSE,167,0.0,0.0,94,0.00,,OVC095,-99.99,VWS V12.07,2013-04-30 05:23:00,
2013-04-30 01:33:00,49.6,48.0,30.15,SSE,167,0.0,0.0,94,0.00,,OVC095,-99.99,VWS V12.07,2013-04-30 05:33:00,
2013-04-30 01:43:00,49.9,48.0,30.15,SSE,167,0.0,0.0,93,0.00,,OVC095,-99.99,VWS V12.07,2013-04-30 05:43:00,
2013-04-30 01:53:00,49.4,47.2,30.15,SSE,167,0.0,0.0,92,0.00,,OVC095,-99.99,VWS V12.07,2013-04-30 05:53:00,
2013-04-30 02:04:00,49.6,47.4,30.15,SSE,167,0.0,0.0,92,0.00,,OVC095,-99.99,VWS V12.07,2013-04-30 06:04:00,
2013-04-30 02:12:00,49.6,47.4,30.15,SSE,167,0.0,0.0,92,0.00,,OVC095,-99.99,VWS V12.07,2013-04-30 06:12:00,
2013-04-30 02:23:00,49.4,47.2,30.15,SSE,167,0.0,0.0,92,0.00,,OVC095,-99.99,VWS V12.07,2013-04-30 06:23:00,
2013-04-30 02:34:00,49.4,47.2,30.15,SSE,167,0.0,0.0,92,0.00,,OVC095,-99.99,VWS V12.07,2013-04-30 06:34:00,
2013-04-30 02:43:00,49.4,46.9,30.15,SSE,167,0.0,0.0,91,0.00,,OVC095,-99.99,VWS V12.07,2013-04-30 06:43:00,
2013-04-30 02:52:00,49.4,46.9,30.15,SSE,167,0.0,0.0,91,0.00,,OVC095,-99.99,VWS V12.07,2013-04-30 06:52:00,
2013-04-30 03:04:00,50.1,48.2,30.15,SSE,167,0.0,0.0,93,0.00,,OVC095,-99.99,VWS V12.07,2013-04-30 07:04:00,
2013-04-30 03:13:00,50.2,48.3,30.15,SSE,167,0.0,0.0,93,0.00,,OVC095,-99.99,VWS V12.07,2013-04-30 07:13:00,
2013-04-30 03:23:00,50.4,48.7,30.16,SSE,167,0.0,0.0,94,0.00,,OVC095,-99.99,VWS V12.07,2013-04-30 07:23:00,
2013-04-30 03:34:00,50.4,48.7,30.16,SSE,167,0.0,0.0,94,0.00,,OVC095,-99.99,VWS V12.07,2013-04-30 07:34:00,
2013-04-30 03:43:00,50.4,48.7,30.16,SSE,167,0.0,0.0,94,0.00,,OVC095,-99.99,VWS V12.07,2013-04-30 07:43:00,
2013-04-30 03:53:00,50.2,48.5,30.16,SSE,167,0.0,0.0,94,0.00,,OVC095,-99.99,VWS V12.07,2013-04-30 07:53:00,
2013-04-30 04:04:00,49.9,48.2,30.17,SSE,167,0.0,0.0,94,0.00,,OVC095,-99.99,VWS V12.07,2013-04-30 08:04:00,
2013-04-30 04:13:00,49.6,47.7,30.17,SSE,167,0.0,0.0,93,0.00,,OVC095,-99.99,VWS V12.07,2013-04-30 08:13:00,
2013-04-30 04:23:00,49.6,47.4,30.17,SSE,167,0.0,0.0,92,0.00,,OVC095,-99.99,VWS V12.07,2013-04-30 08:23:00,
2013-04-30 04:34:00,49.6,47.4,30.17,SSE,167,0.0,0.0,92,0.00,,OVC095,-99.99,VWS V12.07,2013-04-30 08:34:00,
2013-04-30 04:43:00,49.6,47.4,30.17,SSE,167,0.0,0.0,92,0.00,,OVC095,-99.99,VWS V12.07,2013-04-30 08:43:00,
2013-04-30 04:52:00,49.6,47.4,30.17,SSE,167,0.0,0.0,92,0.00,,OVC095,-99.99,VWS V12.07,2013-04-30 08:52:00,
2013-04-30 05:04:00,49.9,48.0,30.17,SSE,167,0.0,0.0,93,0.00,,OVC095,-99.99,VWS V12.07,2013-04-30 09:04:00,
2013-04-30 05:13:00,50.2,48.0,30.17,SSE,167,0.0,0.0,92,0.00,,OVC095,-99.99,VWS V12.07,2013-04-30 09:13:00,
2013-04-30 05:23:00,49.8,47.9,30.18,SSE,167,0.0,0.0,93,0.00,,OVC095,-99.99,VWS V12.07,2013-04-30 09:23:00,
2013-04-30 05:34:00,49.9,48.0,30.18,SSE,167,0.0,0.0,93,0.00,,OVC095,-99.99,VWS V12.07,2013-04-30 09:34:00,
2013-04-30 05:43:00,49.8,47.9,30.18,SSE,167,0.0,0.0,93,0.00,,OVC095,-99.99,VWS V12.07,2013-04-30 09:43:00,
2013-04-30 05:53:00,49.8,47.9,30.18,SSE,167,0.0,0.0,93,0.00,,OVC095,-99.99,VWS V12.07,2013-04-30 09:53:00,
2013-04-30 06:04:00,49.8,47.9,30.19,SSE,167,0.0,0.0,93,0.00,,OVC095,-99.99,VWS V12.07,2013-04-30 10:04:00,
2013-04-30 06:12:00,49.6,47.7,30.19,SSE,167,0.0,0.0,93,0.00,,OVC095,-99.99,VWS V12.07,2013-04-30 10:12:00,
2013-04-30 06:23:00,49.4,47.2,30.20,SSE,167,0.0,0.0,92,0.00,,OVC095,-99.99,VWS V12.07,2013-04-30 10:23:00,
2013-04-30 06:34:00,49.2,47.0,30.20,SSE,167,0.0,0.0,92,0.00,,OVC095,-99.99,VWS V12.07,2013-04-30 10:34:00,
2013-04-30 06:43:00,49.2,47.0,30.20,SSE,167,0.0,0.0,92,0.00,,OVC095,-99.99,VWS V12.07,2013-04-30 10:43:00,
2013-04-30 06:52:00,49.6,47.4,30.20,SSE,167,0.0,0.0,92,0.00,,OVC095,-99.99,VWS V12.07,2013-04-30 10:52:00,
2013-04-30 07:04:00,50.5,48.6,30.21,SSE,167,0.0,0.0,93,0.00,,OVC095,-99.99,VWS V12.07,2013-04-30 11:04:00,
2013-04-30 07:13:00,50.7,48.8,30.21,SSE,167,0.0,0.0,93,0.00,,OVC095,-99.99,VWS V12.07,2013-04-30 11:13:00,
2013-04-30 07:23:00,51.3,49.3,30.22,SSE,167,0.0,0.0,93,0.00,,OVC095,-99.99,VWS V12.07,2013-04-30 11:23:00,
2013-04-30 07:34:00,51.7,49.2,30.22,SSE,165,0.0,0.0,91,0.00,,OVC095,-99.99,VWS V12.07,2013-04-30 11:34:00,
2013-04-30 07:43:00,52.2,49.1,30.22,SSE,165,0.0,0.0,89,0.00,,OVC095,-99.99,VWS V12.07,2013-04-30 11:43:00,
2013-04-30 07:53:00,52.6,47.9,30.22,SSE,165,0.0,0.0,84,0.00,,OVC095,-99.99,VWS V12.07,2013-04-30 11:53:00,
2013-04-30 08:04:00,53.8,47.5,30.22,SSE,165,0.0,1.0,79,0.00,,OVC095,-99.99,VWS V12.07,2013-04-30 12:04:00,
2013-04-30 08:13:00,54.4,48.0,30.22,SSE,165,0.0,2.0,79,0.00,,OVC095,-99.99,VWS V12.07,2013-04-30 12:13:00,
2013-04-30 08:23:00,54.7,46.6,30.23,SSE,165,1.0,2.0,74,0.00,,OVC095,-99.99,VWS V12.07,2013-04-30 12:23:00,
2013-04-30 08:34:00,55.1,46.6,30.23,SSE,165,0.0,0.0,73,0.00,,OVC095,-99.99,VWS V12.07,2013-04-30 12:34:00,
2013-04-30 08:43:00,55.7,47.5,30.23,SSE,165,0.0,2.0,74,0.00,,OVC095,-99.99,VWS V12.07,2013-04-30 12:43:00,
2013-04-30 08:53:00,56.2,48.4,30.23,SSE,150,0.0,3.0,75,0.00,,OVC095,-99.99,VWS V12.07,2013-04-30 12:53:00,
2013-04-30 09:05:00,56.7,48.5,30.23,SSE,150,0.0,2.0,74,0.00,,OVC095,-99.99,VWS V12.07,2013-04-30 13:05:00,
2013-04-30 09:13:00,56.6,47.7,30.23,South,172,1.0,5.0,72,0.00,,OVC095,-99.99,VWS V12.07,2013-04-30 13:13:00,
2013-04-30 09:23:00,56.9,47.6,30.24,SSE,168,0.0,5.0,71,0.00,,OVC095,-99.99,VWS V12.07,2013-04-30 13:23:00,
2013-04-30 09:34:00,57.2,47.9,30.24,SE,131,2.0,5.0,71,0.00,,OVC095,-99.99,VWS V12.07,2013-04-30 13:34:00,
2013-04-30 09:43:00,57.0,45.8,30.24,South,169,1.0,5.0,66,0.00,,OVC095,-99.99,VWS V12.07,2013-04-30 13:43:00,
2013-04-30 09:53:00,57.3,46.0,30.24,South,171,0.0,5.0,66,0.00,,OVC095,-99.99,VWS V12.07,2013-04-30 13:53:00,
2013-04-30 10:04:00,57.8,47.3,30.24,SE,126,1.0,3.0,68,0.00,,OVC095,-99.99,VWS V12.07,2013-04-30 14:04:00,
2013-04-30 10:13:00,58.0,45.9,30.24,SE,144,2.0,3.0,64,0.00,,OVC095,-99.99,VWS V12.07,2013-04-30 14:13:00,
2013-04-30 10:23:00,58.4,46.3,30.24,SSE,155,0.0,3.0,64,0.00,,OVC095,-99.99,VWS V12.07,2013-04-30 14:23:00,
2013-04-30 10:34:00,59.3,47.5,30.24,SW,223,0.0,3.0,65,0.00,,OVC095,-99.99,VWS V12.07,2013-04-30 14:34:00,
2013-04-30 10:43:00,59.8,46.8,30.24,South,178,1.0,3.0,62,0.00,,OVC095,-99.99,VWS V12.07,2013-04-30 14:43:00,
2013-04-30 10:53:00,60.9,46.9,30.23,ESE,107,2.0,6.0,60,0.00,,OVC095,-99.99,VWS V12.07,2013-04-30 14:53:00,
2013-04-30 11:05:00,61.5,46.6,30.23,South,178,2.0,5.0,58,0.00,,OVC095,-99.99,VWS V12.07,2013-04-30 15:05:00,
2013-04-30 11:13:00,62.0,43.2,30.23,SE,136,3.0,5.0,50,0.00,,OVC095,-99.99,VWS V12.07,2013-04-30 15:13:00,
2013-04-30 11:23:00,62.0,43.7,30.23,SSE,152,0.0,6.0,51,0.00,,OVC095,-99.99,VWS V12.07,2013-04-30 15:23:00,
2013-04-30 11:34:00,62.7,40.5,30.22,South,174,0.0,3.0,44,0.00,,OVC095,-99.99,VWS V12.07,2013-04-30 15:34:00,
2013-04-30 11:43:00,63.7,41.4,30.22,ESE,116,2.0,6.0,44,0.00,,OVC095,-99.99,VWS V12.07,2013-04-30 15:43:00,
2013-04-30 11:53:00,64.5,42.1,30.22,SSE,160,1.0,7.0,44,0.00,,OVC095,-99.99,VWS V12.07,2013-04-30 15:53:00,
2013-04-30 12:04:00,65.3,43.4,30.21,South,179,1.0,5.0,45,0.00,,OVC095,-99.99,VWS V12.07,2013-04-30 16:04:00,
2013-04-30 12:12:00,66.1,43.0,30.21,SSE,152,2.0,5.0,43,0.00,,OVC095,-99.99,VWS V12.07,2013-04-30 16:12:00,
2013-04-30 12:23:00,67.1,41.3,30.20,SSE,158,0.0,6.0,39,0.00,,OVC095,-99.99,VWS V12.07,2013-04-30 16:23:00,
2013-04-30 12:34:00,67.4,44.2,30.20,SSE,162,2.0,4.0,43,0.00,,OVC095,-99.99,VWS V12.07,2013-04-30 16:34:00,
2013-04-30 12:43:00,67.4,44.2,30.20,SSE,168,0.0,6.0,43,0.00,,OVC095,-99.99,VWS V12.07,2013-04-30 16:43:00,
2013-04-30 12:52:00,68.1,44.8,30.20,SSE,167,2.0,6.0,43,0.00,,OVC095,-99.99,VWS V12.07,2013-04-30 16:52:00,
2013-04-30 13:05:00,68.9,41.6,30.19,South,184,0.0,7.0,37,0.00,,OVC095,-99.99,VWS V12.07,2013-04-30 17:05:00,
2013-04-30 13:13:00,69.1,43.8,30.19,WSW,243,0.0,7.0,40,0.00,,OVC095,-99.99,VWS V12.07,2013-04-30 17:13:00,
2013-04-30 13:23:00,69.9,43.2,30.19,SSE,151,1.0,7.0,38,0.00,,OVC095,-99.99,VWS V12.07,2013-04-30 17:23:00,
2013-04-30 13:34:00,69.9,41.0,30.18,SE,145,2.0,10.0,35,0.00,,OVC095,-99.99,VWS V12.07,2013-04-30 17:34:00,
2013-04-30 13:43:00,70.4,39.2,30.18,SE,140,5.0,10.0,32,0.00,,OVC095,-99.99,VWS V12.07,2013-04-30 17:43:00,
2013-04-30 13:53:00,70.3,42.8,30.18,South,181,1.0,10.0,37,0.00,,OVC095,-99.99,VWS V12.07,2013-04-30 17:53:00,
2013-04-30 14:04:00,70.3,41.4,30.18,SSE,154,2.0,5.0,35,0.00,,OVC095,-99.99,VWS V12.07,2013-04-30 18:04:00,
2013-04-30 14:13:00,70.4,40.7,30.18,WSW,243,1.0,5.0,34,0.00,,OVC095,-99.99,VWS V12.07,2013-04-30 18:13:00,
2013-04-30 14:23:00,70.8,36.1,30.18,SSE,158,3.0,5.0,28,0.00,,OVC095,-99.99,VWS V12.07,2013-04-30 18:23:00,
2013-04-30 14:34:00,71.1,35.5,30.18,ESE,109,2.0,6.0,27,0.00,,OVC095,-99.99,VWS V12.07,2013-04-30 18:34:00,
2013-04-30 14:43:00,71.3,34.7,30.18,SE,133,2.0,6.0,26,0.00,,OVC095,-99.99,VWS V12.07,2013-04-30 18:43:00,
2013-04-30 14:52:00,71.8,35.1,30.18,SSE,147,3.0,6.0,26,0.00,,OVC095,-99.99,VWS V12.07,2013-04-30 18:52:00,
2013-04-30 15:05:00,71.8,37.9,30.18,SSE,157,4.0,6.0,29,0.00,,OVC095,-99.99,VWS V12.07,2013-04-30 19:05:00,
2013-04-30 15:13:00,71.6,37.7,30.18,SSE,162,5.0,10.0,29,0.00,,OVC095,-99.99,VWS V12.07,2013-04-30 19:13:00,
2013-04-30 15:23:00,70.9,35.3,30.18,SE,134,0.0,10.0,27,0.00,,OVC095,-99.99,VWS V12.07,2013-04-30 19:23:00,
2013-04-30 15:34:00,71.8,38.7,30.18,SSE,152,0.0,5.0,30,0.00,,OVC095,-99.99,VWS V12.07,2013-04-30 19:34:00,
2013-04-30 15:43:00,70.9,34.3,30.18,East,97,1.0,7.0,26,0.00,,OVC095,-99.99,VWS V12.07,2013-04-30 19:43:00,
2013-04-30 15:53:00,71.6,34.0,30.18,South,175,5.0,9.0,25,0.00,,OVC095,-99.99,VWS V12.07,2013-04-30 19:53:00,
2013-04-30 16:04:00,71.8,36.0,30.18,South,175,2.0,5.0,27,0.00,,OVC095,-99.99,VWS V12.07,2013-04-30 20:04:00,
2013-04-30 16:12:00,71.6,34.9,30.18,East,92,5.0,10.0,26,0.00,,OVC095,-99.99,VWS V12.07,2013-04-30 20:12:00,
2013-04-30 16:23:00,71.8,37.0,30.18,South,174,1.0,11.0,28,0.00,,OVC095,-99.99,VWS V12.07,2013-04-30 20:23:00,
2013-04-30 16:34:00,72.5,36.7,30.18,SSE,168,3.0,5.0,27,0.00,,OVC095,-99.99,VWS V12.07,2013-04-30 20:34:00,
2013-04-30 16:43:00,72.3,36.5,30.18,ESE,116,5.0,7.0,27,0.00,,OVC095,-99.99,VWS V12.07,2013-04-30 20:43:00,
2013-04-30 16:52:00,72.0,35.3,30.18,ESE,116,2.0,8.0,26,0.00,,OVC095,-99.99,VWS V12.07,2013-04-30 20:52:00,
2013-04-30 17:01:00,72.1,34.4,30.18,South,169,2.0,2.0,25,0.00,,OVC095,-99.99,VWS V12.07,2013-04-30 21:01:00,
2013-04-30 17:13:00,72.3,35.5,30.18,ESE,109,5.0,8.0,26,0.00,,OVC095,-99.99,VWS V12.07,2013-04-30 21:13:00,
2013-04-30 17:23:00,71.5,34.8,30.18,SSE,161,3.0,8.0,26,0.00,,OVC095,-99.99,VWS V12.07,2013-04-30 21:23:00,
2013-04-30 17:35:00,70.9,34.3,30.18,South,181,1.0,7.0,26,0.00,,OVC095,-99.99,VWS V12.07,2013-04-30 21:35:00,
2013-04-30 17:43:00,70.9,35.3,30.18,South,169,3.0,7.0,27,0.00,,OVC095,-99.99,VWS V12.07,2013-04-30 21:43:00,
2013-04-30 17:53:00,70.8,34.2,30.18,SE,137,8.0,8.0,26,0.00,,OVC095,-99.99,VWS V12.07,2013-04-30 21:53:00,
2013-04-30 18:04:00,70.4,33.9,30.18,SSE,155,2.0,6.0,26,0.00,,OVC095,-99.99,VWS V12.07,2013-04-30 22:04:00,
2013-04-30 18:13:00,70.1,30.6,30.18,ESE,110,3.0,7.0,23,0.00,,OVC095,-99.99,VWS V12.07,2013-04-30 22:13:00,
2013-04-30 18:23:00,69.8,33.4,30.18,SE,137,6.0,7.0,26,0.00,,OVC095,-99.99,VWS V12.07,2013-04-30 22:23:00,
2013-04-30 18:34:00,69.3,33.0,30.18,SSE,167,0.0,3.0,26,0.00,,OVC095,-99.99,VWS V12.07,2013-04-30 22:34:00,
2013-04-30 18:43:00,69.3,33.0,30.18,SE,138,5.0,5.0,26,0.00,,OVC095,-99.99,VWS V12.07,2013-04-30 22:43:00,
2013-04-30 18:52:00,68.8,33.5,30.18,SSE,150,2.0,6.0,27,0.00,,OVC095,-99.99,VWS V12.07,2013-04-30 22:52:00,
2013-04-30 19:05:00,67.9,33.6,30.19,ESE,120,5.0,7.0,28,0.00,,OVC095,-99.99,VWS V12.07,2013-04-30 23:05:00,
2013-04-30 19:13:00,67.1,32.9,30.19,SSE,167,4.0,7.0,28,0.00,,OVC095,-99.99,VWS V12.07,2013-04-30 23:13:00,
2013-04-30 19:23:00,66.4,33.2,30.20,ESE,116,1.0,7.0,29,0.00,,OVC095,-99.99,VWS V12.07,2013-04-30 23:23:00,
2013-04-30 19:34:00,65.8,32.7,30.20,SSE,158,1.0,3.0,29,0.00,,OVC095,-99.99,VWS V12.07,2013-04-30 23:34:00,
2013-04-30 19:43:00,65.3,33.1,30.20,SSE,150,3.0,3.0,30,0.00,,OVC095,-99.99,VWS V12.07,2013-04-30 23:43:00,
2013-04-30 19:53:00,64.8,31.0,30.20,SE,130,2.0,8.0,28,0.00,,OVC095,-99.99,VWS V12.07,2013-04-30 23:53:00,
2013-04-30 20:04:00,64.0,32.0,30.20,South,172,0.0,3.0,30,0.00,,OVC095,-99.99,VWS V12.07,2013-05-01 00:04:00,
2013-04-30 20:12:00,63.5,29.8,30.20,SSE,168,0.0,6.0,28,0.00,,OVC095,-99.99,VWS V12.07,2013-05-01 00:12:00,
2013-04-30 20:23:00,62.6,29.9,30.20,SSE,148,0.0,6.0,29,0.00,,OVC095,-99.99,VWS V12.07,2013-05-01 00:23:00,
2013-04-30 20:34:00,61.6,32.2,30.21,South,174,0.0,0.0,33,0.00,,OVC095,-99.99,VWS V12.07,2013-05-01 00:34:00,
2013-04-30 20:43:00,60.5,32.7,30.21,South,188,0.0,0.0,35,0.00,,OVC095,-99.99,VWS V12.07,2013-05-01 00:43:00,
2013-04-30 20:53:00,59.6,31.9,30.22,South,185,0.0,0.0,35,0.00,,OVC095,-99.99,VWS V12.07,2013-05-01 00:53:00,
2013-04-30 21:05:00,58.7,32.5,30.23,South,185,0.0,0.0,37,0.00,,OVC095,-99.99,VWS V12.07,2013-05-01 01:05:00,
2013-04-30 21:13:00,58.7,32.5,30.23,SSE,158,0.0,3.0,37,0.00,,OVC095,-99.99,VWS V12.07,2013-05-01 01:13:00,
2013-04-30 21:23:00,58.4,31.6,30.23,SSE,158,0.0,3.0,36,0.00,,OVC095,-99.99,VWS V12.07,2013-05-01 01:23:00,
2013-04-30 21:34:00,57.6,30.9,30.24,SSE,158,0.0,0.0,36,0.00,,OVC095,-99.99,VWS V12.07,2013-05-01 01:34:00,
2013-04-30 21:41:00,57.2,32.5,30.24,SSE,158,0.0,0.0,39,0.00,,OVC095,-99.99,VWS V12.07,2013-05-01 01:41:00,
2013-04-30 21:53:00,56.2,31.6,30.24,SSE,158,0.0,0.0,39,0.00,,OVC095,-99.99,VWS V12.07,2013-05-01 01:53:00,
2013-04-30 22:04:00,55.7,31.8,30.24,South,179,0.0,2.0,40,0.00,,OVC095,-99.99,VWS V12.07,2013-05-01 02:04:00,
2013-04-30 22:12:00,55.4,30.2,30.24,South,179,0.0,2.0,38,0.00,,OVC095,-99.99,VWS V12.07,2013-05-01 02:12:00,
2013-04-30 22:23:00,55.0,33.5,30.25,South,179,0.0,2.0,44,0.00,,OVC095,-99.99,VWS V12.07,2013-05-01 02:23:00,
2013-04-30 22:34:00,54.4,33.5,30.25,South,179,0.0,0.0,45,0.00,,OVC095,-99.99,VWS V12.07,2013-05-01 02:34:00,
2013-04-30 22:43:00,53.8,32.4,30.25,South,179,0.0,0.0,44,0.00,,OVC095,-99.99,VWS V12.07,2013-05-01 02:43:00,
2013-04-30 22:53:00,53.3,32.0,30.25,South,179,0.0,0.0,44,0.00,,OVC095,-99.99,VWS V12.07,2013-05-01 02:53:00,
2013-04-30 23:05:00,52.8,33.2,30.25,South,179,0.0,0.0,47,0.00,,OVC095,-99.99,VWS V12.07,2013-05-01 03:05:00,
2013-04-30 23:13:00,52.3,33.7,30.25,South,179,0.0,0.0,49,0.00,,OVC095,-99.99,VWS V12.07,2013-05-01 03:13:00,
2013-04-30 23:23:00,51.9,31.8,30.25,South,179,0.0,0.0,46,0.00,,OVC095,-99.99,VWS V12.07,2013-05-01 03:23:00,
2013-04-30 23:34:00,51.6,33.6,30.25,South,179,0.0,0.0,50,0.00,,OVC095,-99.99,VWS V12.07,2013-05-01 03:34:00,
2013-04-30 23:53:00,51.1,32.6,30.25,South,179,0.0,0.0,49,0.00,,OVC095,-99.99,VWS V12.07,2013-05-01 03:53:00,